Weather Roundup
Issued by NWS Chicago, IL

Home | Current Version | Previous Version | Text Only | Print | Product List | Glossary On
Versions: 1 2 3 4 5 6 7 8 9 10 11 12 13 14 15 16 17 18 19 20 21 22 23 24 25 26 27 28 29 30 31 32 33 34 35 36 37 38 39 40 41 42 43 44 45 46 47 48 49 50
000
NZUS59 KLOT 220810
HRRLOT

CHICAGO AREA WEATHER ROUNDUP
NATIONAL WEATHER SERVICE CHICAGO/ROMEOVILLE IL
200 AM CST MON DEC 22 2014

NOTE: "FAIR" INDICATES FEW OR NO CLOUDS BELOW 12,000 FEET WITH NO
SIGNIFICANT WEATHER AND/OR OBSTRUCTIONS TO VISIBILITY.

* THESE STATIONS ARE NOT UNDER NWS QUALITY CONTROL. THEY ALSO MAY NOT
  REPORT WEATHER SUCH AS PRECIPITATION OR FOG.

ILZ005-006-012>014-019>023-220900-
NORTHEAST ILLINOIS

CITY           SKY/WX    TMP DP  RH WIND       PRES   REMARKS
OHARE          CLOUDY    32  27  81 SE10      29.99R WCI  24
MIDWAY         CLOUDY    34  27  75 S8        30.00S WCI  27
AURORA         CLOUDY    33  27  78 SE10      29.97F HAZE    WCI  25
LANSING*       CLOUDY    31  27  84 SE9       30.01S FOG     WCI  23
JOLIET*        CLOUDY    31  28  88 SE5       29.99F FOG     WCI  26
WAUKEGAN       MOCLDY    32  27  81 SE10      29.98S WCI  24
DUPAGE AIRPORT CLOUDY    32  27  81 SE12      29.97S WCI  23
WHEELING       CLOUDY    32  27  81 S7        30.01R WCI  26
KANKAKEE*      CLOUDY    30  28  91 SE5       30.00S WCI  25
MORRIS*        CLOUDY    32  30  92 SE12      29.96F WCI  23
LEWIS AIRPORT* CLOUDY    31  28  91 S9        29.99S FOG     WCI  23
NORTHERLY IS     N/A     32  27  82 SE13        N/A  WCI  22
$$

WIZ051-052-058>065-066-070>072-220900-
SOUTHEAST WISCONSIN

CITY           SKY/WX    TMP DP  RH WIND       PRES   REMARKS
MILWAUKEE      CLOUDY    34  28  79 S8        29.98F WCI  27
KENOSHA*       CLOUDY    33  28  81 S9        29.98S HAZE    WCI  25
RACINE*        CLOUDY    34  29  82 S12       30.00S WCI  25
BURLINGTON     CLOUDY    32  28  84 S9        29.97S WCI  24
WAUKESHA       CLOUDY    32  28  86 SE9       29.97S WCI  24
WEST BEND      CLOUDY    34  28  80 SE7       29.96F WCI  28
$$

INZ001>003-010>013-019-020-220900-
NORTHWEST INDIANA

CITY           SKY/WX    TMP DP  RH WIND       PRES   REMARKS
GARY*          MOCLDY    33  25  71 SE7       30.02R WCI  27
MICHIGAN CITY* NOT AVBL
RENSSELAER*    NOT AVBL
VALPARAISO     MOCLDY    29  25  85 SE6       30.03S WCI  23
$$

LMZ740>746-220900-
SOUTHERN LAKE MICHIGAN

STATION/POSITION TIME  SKY/WX   TEMP WIND        PRES    VSBY
                                AIR  DIR/SP/G
                 (UTC)          (F)  (DEG/KT/KT) (MB)    (MI)
HARRISON CRIB    0800            33  160/ 16/ 20   N/A
BURNHAM HARBOR   0800            32  150/ 10/ 14   N/A
CALUMET HARBOR   0800            32  150/  9/ 13 1014.9R
BURNS HARBOR     NOT AVBL
MICHIGAN CITY    NOT AVBL
$$

ABBREVIATIONS USED IN REMARKS
   TC - TEMPERATURE IN CELSIUS
  WCI - WIND CHILL INDEX
   HX - HEAT INDEX
  VSB - VISIBILITY
$$


USA.gov is the U.S. government's official web portal to all federal, state and local government web resources and services.